Wetterstats.de || Aktuelle Messwerte || Aktuelle Wetterkarten NEU! || Radar / Satellit NEU! || Wetterarchiv || Langzeitwerte NEU! || Klim. Kenntage || Met. Ereignisse || Agrarwerte || Echtzeitwerte

Monatsübersicht für Juli 2020 Diagramm
 
Wetter Information zur Wetteranzeige
Zeitraffer
Tageslänge (hh:mm)
Höchsttemperatur in °C
Uhrzeit
Tiefsttemperatur in °C
Uhrzeit
Luftfeuchte (max., in %)
Uhrzeit
Luftfeuchte (min., in %)
Uhrzeit
Luftdruck (max., in hPa)
Uhrzeit
Luftdruck (min., in hPa)
Uhrzeit
Luftdruck (Ø, in hPa)
Regenrate (max, mm/h)
Uhrzeit
Niederschlag in mm
Verdunstung in mm
Solar in W/m² (Ø)
Solar in W/m² (max.)
UV-Index (max.)
Sonnenscheindauer (hh:mm)
Windrichtung (Ø)
Windstärke (Ø in km/h)
Windstärke (Ø in bft)
Windböe (max., in km/h)
Uhrzeit
Windböe (max., in bft)
Uhrzeit
Taupunkt (max., in °C)
Uhrzeit
Taupunkt (min., in °C)
Uhrzeit
Windchill (min., in °C)
Uhrzeit
Gewitterindex (max.)
Uhrzeit
Waldbrandindex (max.)
Uhrzeit
Graslandfeuerindex (max.)
Uhrzeit
Staubsturm-Index (max.)
Uhrzeit
01
Zeitraffer
16:49
23.7
18:30 Uhr
18.8
23:55 Uhr

89
21:35 Uhr
64
18:35 Uhr
1007.2
17:25 Uhr

1006.0
20:15 Uhr
1006.6
2,400
20:45 Uhr
0,400
0.127
42
125
17:30 Uhr
0.8
17:25 Uhr

00:16:00
0,1
0
6,4
19:30 Uhr

1
18.0
21:35 Uhr
16.2
18:40 Uhr
18.8
23:55 Uhr
11
22:25 Uhr
0.0
17:15 Uhr
2.9
17:55 Uhr
0.0
17:15 Uhr
02
Zeitraffer
16:48
24.9
16:55 Uhr
16.8
04:10 Uhr

89
04:00 Uhr
50
17:00 Uhr
1011.2
22:55 Uhr

1007.0
00:00 Uhr
1009.6
0,000
00:00 Uhr
0,000
1.981
169
791
13:55 Uhr
4.3
13:55 Uhr

03:47:00
0,3
0
9,7
15:00 Uhr

2
16.2
00:00 Uhr
12.6
19:35 Uhr
16.8
04:10 Uhr
10
00:00 Uhr
1.9
15:05 Uhr
3.8
15:00 Uhr
0.0
00:00 Uhr
03
Zeitraffer
16:46
23.7
16:30 Uhr
16.7
05:30 Uhr

85
05:10 Uhr
46
16:40 Uhr
1016.9
23:45 Uhr

1011.3
00:00 Uhr
1014.6
0,000
00:00 Uhr
0,000
2.184
191
938
12:10 Uhr
4.8
12:55 Uhr

02:45:00
0,4
0
8,0
11:45 Uhr

2
15.2
00:00 Uhr
11.4
16:40 Uhr
16.7
05:30 Uhr
9
00:00 Uhr
2.1
16:50 Uhr
3.8
16:30 Uhr
0.0
00:00 Uhr
04
Zeitraffer
16:45
26.7
14:20 Uhr
17.2
04:05 Uhr

71
04:05 Uhr
40
15:20 Uhr
1016.9
00:05 Uhr

1012.4
20:25 Uhr
1014.6
0,000
00:00 Uhr
0,000
3.353
295
925
10:40 Uhr
5.0
13:25 Uhr

07:21:00
0,5
0
9,7
10:40 Uhr

2
16.1
20:05 Uhr
11.1
18:00 Uhr
17.2
04:05 Uhr
8
22:35 Uhr
2.3
13:50 Uhr
4.1
14:00 Uhr
0.0
00:00 Uhr
05
Zeitraffer
16:43
27.2
15:10 Uhr
20.1
23:20 Uhr

89
20:05 Uhr
54
15:20 Uhr
1012.9
00:00 Uhr

1008.0
17:45 Uhr
1009.9
2,400
19:00 Uhr
0,800
1.626
133
816
09:20 Uhr
5.7
12:45 Uhr

00:37:00
0,7
0
12,9
14:55 Uhr

2
19.2
19:20 Uhr
13.8
00:05 Uhr
20.1
23:20 Uhr
13
22:25 Uhr
2.4
13:45 Uhr
4.3
15:10 Uhr
0.0
00:00 Uhr
06
Zeitraffer
16:42
23.6
12:45 Uhr
14.6
23:55 Uhr

85
00:00 Uhr
41
12:40 Uhr
1015.9
23:55 Uhr

1007.9
03:45 Uhr
1010.6
0,000
00:00 Uhr
0,000
2.515
226
896
13:00 Uhr
4.3
12:25 Uhr

05:00:00
1,0
0
11,3
08:15 Uhr

2
18.1
00:20 Uhr
7.6
13:30 Uhr
14.6
23:55 Uhr
12
00:00 Uhr
2.0
13:20 Uhr
3.8
13:00 Uhr
0.0
00:00 Uhr
07
Zeitraffer
16:40
21.2
16:50 Uhr
12.4
05:10 Uhr

83
05:15 Uhr
38
16:10 Uhr
1019.0
07:50 Uhr

1015.3
20:40 Uhr
1017.5
0,000
00:00 Uhr
0,000
2.337
205
1060
13:00 Uhr
4.7
13:00 Uhr

04:18:00
0,7
0
9,7
08:35 Uhr

2
11.9
22:45 Uhr
5.8
18:30 Uhr
12.4
05:10 Uhr
4
22:25 Uhr
2.2
16:15 Uhr
4.1
16:40 Uhr
0.0
00:00 Uhr
08
Zeitraffer
16:38
20.0
11:50 Uhr
13.9
02:55 Uhr

84
00:15 Uhr
50
11:50 Uhr
1017.0
23:35 Uhr

1015.0
06:20 Uhr
1015.6
2,400
00:20 Uhr
0,200
1.499
138
993
11:50 Uhr
4.4
11:45 Uhr

00:31:00
0,2
0
8,0
12:05 Uhr

2
11.9
00:05 Uhr
8.7
11:10 Uhr
13.9
02:55 Uhr
4
00:00 Uhr
1.8
12:20 Uhr
3.5
11:55 Uhr
0.0
00:00 Uhr
09
Zeitraffer
16:37
20.3
11:45 Uhr
14.7
06:35 Uhr

93
14:10 Uhr
64
11:45 Uhr
1017.0
00:40 Uhr

1010.2
19:20 Uhr
1013.9
4,800
14:00 Uhr
6,000
0.991
95
445
10:20 Uhr
2.2
10:20 Uhr

00:06:00
0,7
0
20,9
11:50 Uhr

4
18.1
17:50 Uhr
11.2
01:30 Uhr
14.7
06:35 Uhr
10
22:15 Uhr
2.3
11:00 Uhr
4.8
11:35 Uhr
0.9
11:50 Uhr
10
Zeitraffer
16:35
24.2
13:20 Uhr
13.8
23:45 Uhr

96
09:40 Uhr
62
17:15 Uhr
1017.1
23:20 Uhr

1006.2
14:30 Uhr
1010.1
2,400
07:55 Uhr
4,600
1.397
128
586
12:05 Uhr
4.1
12:35 Uhr

00:43:00
0,7
0
14,5
12:40 Uhr

3
21.0
14:30 Uhr
10.7
23:20 Uhr
13.8
23:45 Uhr
12
14:20 Uhr
0.0
00:00 Uhr
0.0
00:00 Uhr
0.0
00:00 Uhr
11
Zeitraffer
16:33
20.9
17:55 Uhr
11.7
05:20 Uhr

89
04:35 Uhr
43
17:15 Uhr
1024.6
23:00 Uhr

1017.1
00:00 Uhr
1021.6
2,400
02:40 Uhr
0,800
2.286
228
1013
13:30 Uhr
4.6
13:30 Uhr

04:45:00
0,5
0
12,9
18:15 Uhr

2
11.1
00:15 Uhr
7.4
17:25 Uhr
11.7
05:20 Uhr
3
00:00 Uhr
0.0
00:00 Uhr
0.0
00:00 Uhr
0.0
00:00 Uhr
12
Zeitraffer
16:31
21.9
12:00 Uhr
10.9
05:05 Uhr

88
04:55 Uhr
41
14:55 Uhr
1027.3
12:25 Uhr

1024.6
00:00 Uhr
1026.4
0,000
00:00 Uhr
0,000
2.946
291
960
11:55 Uhr
4.7
13:05 Uhr

07:42:00
0,7
0
12,9
13:15 Uhr

2
11.3
08:50 Uhr
7.3
16:00 Uhr
10.9
05:05 Uhr
2
00:00 Uhr
0.0
00:00 Uhr
1.7
13:50 Uhr
0.0
00:00 Uhr
13
Zeitraffer
16:29
25.0
13:00 Uhr
12.5
05:10 Uhr

84
05:00 Uhr
40
12:45 Uhr
1026.8
00:25 Uhr

1019.6
23:35 Uhr
1023.8
0,000
00:00 Uhr
0,000
3.200
301
937
12:55 Uhr
4.9
12:45 Uhr

08:09:00
0,5
0
12,9
17:30 Uhr

2
11.7
23:50 Uhr
9.3
12:30 Uhr
12.5
05:10 Uhr
4
22:20 Uhr
0.2
14:00 Uhr
2.7
13:05 Uhr
0.0
00:00 Uhr
14
Zeitraffer
16:26
28.5
12:10 Uhr
13.3
05:25 Uhr

81
03:30 Uhr
28
18:15 Uhr
1019.6
00:05 Uhr

1010.7
21:10 Uhr
1014.8
0,000
00:00 Uhr
0,000
3.683
321
870
13:00 Uhr
4.6
12:45 Uhr

08:11:00
1,0
0
17,7
13:10 Uhr

3
13.7
23:20 Uhr
7.4
18:15 Uhr
13.3
05:25 Uhr
7
23:00 Uhr
4.3
15:30 Uhr
5.9
10:40 Uhr
2.3
14:55 Uhr
15
Zeitraffer
16:24
20.6
00:00 Uhr
15.2
23:55 Uhr

95
23:00 Uhr
60
00:10 Uhr
1014.1
23:40 Uhr

1011.4
05:40 Uhr
1012.6
2,400
12:00 Uhr
3,200
0.762
69
306
08:30 Uhr
1.0
12:25 Uhr

00:03:00
0,3
0
12,9
00:30 Uhr

2
15.9
19:25 Uhr
11.9
00:20 Uhr
15.2
23:55 Uhr
9
22:10 Uhr
3.5
00:00 Uhr
5.4
00:00 Uhr
1.3
00:15 Uhr


 
Wetter Information zur Wetteranzeige
Zeitraffer
Tageslänge (hh:mm)
Höchsttemperatur in °C
Uhrzeit
Tiefsttemperatur in °C
Uhrzeit
Luftfeuchte (max., in %)
Uhrzeit
Luftfeuchte (min., in %)
Uhrzeit
Luftdruck (max., in hPa)
Uhrzeit
Luftdruck (min., in hPa)
Uhrzeit
Luftdruck (Ø, in hPa)
Regenrate (max, mm/h)
Uhrzeit
Niederschlag in mm
Verdunstung in mm
Solar in W/m² (Ø)
Solar in W/m² (max.)
UV-Index (max.)
Sonnenscheindauer (hh:mm)
Windrichtung (Ø)
Windstärke (Ø in km/h)
Windstärke (Ø in bft)
Windböe (max., in km/h)
Uhrzeit
Windböe (max., in bft)
Uhrzeit
Taupunkt (max., in °C)
Uhrzeit
Taupunkt (min., in °C)
Uhrzeit
Windchill (min., in °C)
Uhrzeit
Gewitterindex (max.)
Uhrzeit
Waldbrandindex (max.)
Uhrzeit
Graslandfeuerindex (max.)
Uhrzeit
Staubsturm-Index (max.)
Uhrzeit
16
Zeitraffer
16:22
22.7
14:05 Uhr
14.1
05:30 Uhr

96
00:35 Uhr
46
13:55 Uhr
1017.8
23:55 Uhr

1014.1
00:00 Uhr
1015.5
4,800
15:00 Uhr
0,800
2.032
206
947
13:45 Uhr
4.5
13:40 Uhr

02:38:00
0,6
0
19,3
19:05 Uhr

3
15.3
15:40 Uhr
9.7
13:55 Uhr
14.1
05:30 Uhr
8
00:00 Uhr
1.0
14:15 Uhr
3.5
14:20 Uhr
0.0
00:00 Uhr
17
Zeitraffer
16:20
21.2
15:30 Uhr
12.1
05:20 Uhr

92
23:05 Uhr
68
08:25 Uhr
1020.3
23:50 Uhr

1017.6
01:05 Uhr
1018.7
7,200
16:00 Uhr
1,000
1.270
135
793
13:05 Uhr
4.2
13:05 Uhr

03:33:00
0,2
0
6,4
09:20 Uhr

1
17.7
17:05 Uhr
10.7
04:45 Uhr
12.1
05:20 Uhr
10
22:05 Uhr
1.0
15:50 Uhr
3.5
14:05 Uhr
0.0
00:00 Uhr
18
Zeitraffer
16:17
26.5
18:10 Uhr
13.4
04:55 Uhr

94
03:45 Uhr
47
17:30 Uhr
1021.1
09:35 Uhr

1017.7
19:45 Uhr
1019.7
0,000
00:00 Uhr
0,000
2.819
260
891
14:10 Uhr
4.5
12:55 Uhr

06:53:00
0,6
0
14,5
14:25 Uhr

3
17.4
09:05 Uhr
12.4
05:00 Uhr
13.4
04:55 Uhr
10
22:05 Uhr
1.1
17:45 Uhr
3.8
16:35 Uhr
0.0
00:00 Uhr
19
Zeitraffer
16:14
30.7
12:55 Uhr
16.5
05:30 Uhr

89
05:05 Uhr
40
13:05 Uhr
1019.0
00:10 Uhr

1013.4
18:15 Uhr
1016.1
0,000
00:00 Uhr
0,000
3.049
293
806
12:45 Uhr
4.3
12:45 Uhr

07:25:00
0,7
0
20,9
19:45 Uhr

4
18.4
08:30 Uhr
14.3
17:05 Uhr
16.5
05:30 Uhr
12
23:50 Uhr
2.9
15:35 Uhr
5.0
13:35 Uhr
1.0
19:55 Uhr
20
Zeitraffer
16:11
26.7
12:40 Uhr
16.8
23:50 Uhr

88
15:30 Uhr
49
12:40 Uhr
1019.8
23:25 Uhr

1013.2
06:55 Uhr
1015.8
45,600
15:20 Uhr
5,400
2.515
217
798
12:40 Uhr
4.0
12:35 Uhr

04:21:00
0,9
0
19,3
11:35 Uhr

3
18.3
09:10 Uhr
13.2
19:50 Uhr
16.8
23:50 Uhr
11
00:00 Uhr
3.0
12:30 Uhr
5.1
13:00 Uhr
1.0
11:35 Uhr
21
Zeitraffer
16:09
23.3
16:35 Uhr
13.6
05:15 Uhr

88
02:05 Uhr
36
15:25 Uhr
1022.4
23:50 Uhr

1019.8
00:00 Uhr
1021.3
0,000
00:00 Uhr
0,000
2.896
284
914
13:00 Uhr
4.9
12:35 Uhr

06:38:00
0,7
0
9,7
14:50 Uhr

2
14.3
00:00 Uhr
6.6
16:05 Uhr
13.6
05:15 Uhr
8
00:00 Uhr
0.0
00:00 Uhr
3.1
15:55 Uhr
0.0
00:00 Uhr
22
Zeitraffer
16:06
23.9
13:15 Uhr
12.1
05:05 Uhr

81
05:05 Uhr
34
13:15 Uhr
1023.3
08:55 Uhr

1019.4
19:30 Uhr
1021.8
0,000
00:00 Uhr
0,000
2.845
269
920
13:15 Uhr
5.0
13:10 Uhr

06:50:00
0,6
0
9,7
21:25 Uhr

2
11.8
10:00 Uhr
7.1
13:15 Uhr
12.1
05:05 Uhr
3
09:45 Uhr
1.8
15:05 Uhr
4.7
15:00 Uhr
0.0
00:00 Uhr
23
Zeitraffer
16:03
23.4
14:50 Uhr
14.6
05:20 Uhr

87
05:20 Uhr
35
15:25 Uhr
1019.7
00:40 Uhr

1014.0
23:40 Uhr
1017.3
2,400
04:10 Uhr
0,200
2.184
206
1005
10:55 Uhr
4.8
12:45 Uhr

02:49:00
0,3
0
9,7
16:55 Uhr

2
12.6
04:30 Uhr
6.5
15:30 Uhr
14.6
05:20 Uhr
5
04:25 Uhr
1.7
16:10 Uhr
4.7
16:15 Uhr
0.0
00:00 Uhr
24
Zeitraffer
16:01
27.8
13:30 Uhr
15.0
02:10 Uhr

72
01:15 Uhr
33
16:20 Uhr
1014.0
00:00 Uhr

1008.0
16:30 Uhr
1010.6
0,000
00:00 Uhr
0,000
2.540
220
933
13:25 Uhr
4.9
12:25 Uhr

04:07:00
0,5
0
11,3
16:35 Uhr

2
14.0
20:00 Uhr
9.4
00:05 Uhr
15.0
02:10 Uhr
7
21:55 Uhr
3.6
16:50 Uhr
5.4
16:20 Uhr
1.0
18:00 Uhr
25
Zeitraffer
15:57
26.0
17:35 Uhr
15.8
04:20 Uhr

82
04:50 Uhr
47
17:40 Uhr
1013.6
09:15 Uhr

1011.2
00:10 Uhr
1012.3
0,000
00:00 Uhr
0,000
1.626
154
768
13:05 Uhr
4.3
13:05 Uhr

01:10:00
0,2
0
6,4
11:15 Uhr

1
15.7
13:25 Uhr
12.4
03:55 Uhr
15.8
04:20 Uhr
8
21:55 Uhr
3.2
17:00 Uhr
5.2
17:40 Uhr
0.4
17:45 Uhr
26
Zeitraffer
15:55
22.6
13:55 Uhr
16.1
23:55 Uhr

95
23:15 Uhr
66
00:00 Uhr
1015.8
23:50 Uhr

1008.1
08:05 Uhr
1011.1
16,800
18:40 Uhr
4,200
0.889
79
406
13:05 Uhr
2.7
13:05 Uhr

00:25:00
0,3
0
16,1
13:25 Uhr

3
18.3
15:55 Uhr
14.3
00:00 Uhr
16.1
23:55 Uhr
10
21:55 Uhr
2.7
00:00 Uhr
4.7
00:00 Uhr
0.0
00:00 Uhr
27
Zeitraffer
15:51
26.5
15:45 Uhr
14.3
05:20 Uhr

96
02:20 Uhr
46
16:40 Uhr
1018.5
08:35 Uhr

1011.6
23:45 Uhr
1016.2
2,400
06:15 Uhr
0,200
2.413
232
746
11:10 Uhr
3.8
13:00 Uhr

05:04:00
0,3
0
16,1
11:50 Uhr

3
17.3
07:45 Uhr
12.9
17:25 Uhr
14.3
05:20 Uhr
10
23:15 Uhr
0.0
00:00 Uhr
2.7
16:05 Uhr
0.0
00:00 Uhr
28
Zeitraffer
15:48
28.9
12:40 Uhr
19.8
23:50 Uhr

71
00:05 Uhr
38
17:00 Uhr
1013.3
23:50 Uhr

1007.0
06:20 Uhr
1009.5
0,000
00:00 Uhr
0,000
2.464
214
925
12:55 Uhr
4.8
12:30 Uhr

03:07:00
1,3
0
14,5
03:00 Uhr

3
17.1
11:50 Uhr
11.7
17:00 Uhr
19.8
23:50 Uhr
8
00:00 Uhr
1.4
16:10 Uhr
4.1
16:30 Uhr
0.0
00:00 Uhr
29
Zeitraffer
15:45
23.8
13:20 Uhr
15.4
05:35 Uhr

76
04:20 Uhr
39
16:50 Uhr
1019.5
23:45 Uhr

1013.5
00:00 Uhr
1017.1
0,000
00:00 Uhr
0,000
2.261
208
958
11:50 Uhr
4.2
13:10 Uhr

02:48:00
0,6
0
9,7
11:30 Uhr

2
12.7
00:00 Uhr
8.1
17:30 Uhr
15.4
05:35 Uhr
6
00:00 Uhr
2.1
17:40 Uhr
4.8
17:25 Uhr
0.0
00:00 Uhr
30
Zeitraffer
15:42
23.8
12:35 Uhr
12.4
05:30 Uhr

77
05:20 Uhr
37
17:40 Uhr
1021.7
08:45 Uhr

1019.4
00:15 Uhr
1020.5
0,000
00:00 Uhr
0,000
3.124
295
794
12:50 Uhr
4.7
12:40 Uhr

06:08:00
0,5
0
14,5
20:25 Uhr

3
11.1
23:45 Uhr
7.8
17:40 Uhr
12.4
05:30 Uhr
3
22:55 Uhr
3.5
14:05 Uhr
5.4
14:00 Uhr
1.2
20:30 Uhr
31
Zeitraffer
15:39
25.9
17:50 Uhr
13.7
05:55 Uhr

79
06:00 Uhr
36
18:00 Uhr
1020.1
00:40 Uhr

1017.7
18:20 Uhr
1019.1
0,000
00:00 Uhr
0,000
3.353
309
789
13:10 Uhr
4.8
12:40 Uhr

07:53:00
1,2
0
16,1
23:25 Uhr

3
13.3
23:30 Uhr
9.3
18:10 Uhr
13.7
05:55 Uhr
7
23:25 Uhr
4.1
18:20 Uhr
5.9
11:05 Uhr
2.5
19:40 Uhr
Stationsstandorte || Wetterblog || Wissenswertes || Downloads || Seitenhistorie || Partner || Impressum / Datenschutz